Mather AFB, CA

8:12 PM PDT on October 20, 2017 (GMT -0700)
Mather

Weather History for KMHR - December, 2012

Change the Weather History Date:

Saturday, December 22, 2012

  Actual Average Record
Temperature  
Mean Temperature 48 °F -  
Max Temperature 53 °F 50 °F 62 °F (2005)
Min Temperature 42 °F 36 °F 30 °F (2007)
Degree Days  
Heating Degree Days 18    
Moisture  
Dew Point 45 °F    
Average Humidity 89    
Maximum Humidity 100    
Minimum Humidity 71    
Precipitation  
Precipitation 0.00 in - - ()
Sea Level Pressure  
Sea Level Pressure 29.95 in    
Wind  
Wind Speed 17 mph (SE)    
Max Wind Speed 24 mph    
Max Gust Speed 34 mph    
Visibility 9 miles    
Events Rain    
Averages and records for this station are not official NWS values.
T = Trace of Precipitation, MM = Missing Value Source: NWS Daily Summary

Daily Weather History Graph

Daily Weather History Graph

Search for Another Location

Airport or City:

Trip Planner

Search our weather history database for the weather conditions in past years. The results will help you decide how hot, cold, wet, or windy it might be!

Date:

Astronomy

Dec. 22, 2012 Rise Set
Actual Time 7:19 AM PST 4:48 PM PST
Civil Twilight 6:50 AM PST 5:18 PM PST
Nautical Twilight 6:16 AM PST 5:51 PM PST
Astronomical Twilight 5:44 AM PST 6:23 PM PST
Moon 1:06 PM PST (12/22) 2:12 AM PST (12/22)
Length of Visible Light 10h 28m
Length of Day
9h 28m
Waxing Gibbous, 74% of the Moon is Illuminated
Dec 22
Waxing Gibbous
Dec 28
Full
Jan 4
Last Quarter
Jan 11
New
Jan 18
First Quarter

Hourly Weather History & Observations

Time (PST) Temp. Windchill Dew Point Humidity Pressure Visibility Wind Dir Wind Speed Gust Speed Precip Events Conditions
12:45 AM 50.0 °F - 41.0 °F 71% 29.86 in 10.0 mi SSE 20.7 mph 27.6 mph N/A Rain Light Rain
1:45 AM 50.0 °F - 42.8 °F 76% 29.87 in 10.0 mi SSE 20.7 mph 29.9 mph N/A Rain Light Rain
2:45 AM 48.2 °F - 44.6 °F 87% 29.87 in 10.0 mi SE 24.2 mph 33.4 mph N/A Rain Light Rain
3:45 AM 50.0 °F - 44.6 °F 82% 29.86 in 10.0 mi SE 19.6 mph 34.5 mph N/A   Overcast
4:45 AM 48.2 °F - 44.6 °F 87% 29.85 in 10.0 mi SE 20.7 mph - N/A   Overcast
5:45 AM 50.0 °F - 44.6 °F 82% 29.83 in 8.0 mi SE 19.6 mph 24.2 mph N/A Rain Light Rain
6:45 AM 48.2 °F - 44.6 °F 87% 29.88 in 3.0 mi South 17.3 mph 24.2 mph N/A Rain Rain
7:45 AM 46.4 °F 39.0 °F 44.6 °F 93% 29.89 in 3.0 mi SSE 19.6 mph 29.9 mph N/A Rain Rain
8:45 AM 44.6 °F 40.7 °F 44.6 °F 100% 29.95 in 3.0 mi SSE 6.9 mph - N/A Rain Rain
9:45 AM 46.4 °F 40.7 °F 44.6 °F 93% 29.96 in 10.0 mi SE 12.7 mph - N/A   Mostly Cloudy
11:50 AM 46.4 °F 40.4 °F 46.4 °F 100% 29.98 in 8.0 mi SSE 13.8 mph - N/A   Mostly Cloudy
12:50 PM 50.0 °F - 48.2 °F 94% 29.96 in 10.0 mi SSE 16.1 mph - N/A   Mostly Cloudy
1:50 PM 53.6 °F - 46.4 °F 77% 29.96 in 10.0 mi SSE 17.3 mph 21.9 mph N/A   Mostly Cloudy
2:50 PM 50.0 °F - 44.6 °F 82% 29.97 in 10.0 mi SSE 15.0 mph 18.4 mph N/A   Mostly Cloudy
3:54 PM 48.2 °F - 46.4 °F 93% 29.99 in 10.0 mi South 15.0 mph 26.5 mph N/A   Mostly Cloudy
4:49 PM 48.2 °F - 46.4 °F 93% 30.00 in 8.0 mi SE 9.2 mph - N/A Rain Light Rain
5:55 PM 46.4 °F 41.1 °F 42.8 °F 87% 30.02 in 10.0 mi SSE 11.5 mph - N/A   Mostly Cloudy
6:54 PM 42.8 °F 37.0 °F 41.0 °F 93% 30.04 in 10.0 mi SE 10.4 mph - N/A   Mostly Cloudy
7:52 PM 44.6 °F 39.2 °F 44.6 °F 100% 30.04 in 10.0 mi ESE 10.4 mph - N/A   Mostly Cloudy
8:49 PM 44.6 °F 40.2 °F 44.6 °F 100% 30.08 in 10.0 mi ESE 8.1 mph - N/A   Overcast
9:52 PM 44.6 °F 39.7 °F 44.6 °F 100% 30.08 in 10.0 mi ESE 9.2 mph - N/A   Overcast